Powrót do katalogu

SATCOM 3 DEB *

LostHEO
NORAD 32990·DEBRIS·🇺🇸 United States

Wystrzelony Dec 7, 1979 z Cape Canaveral Space Force Station

Loading…

Następne Przeloty (najbliższe 24 godziny)

TLE

NieaktualneSource: Space-Track

Epoka: Jun 24, 2022, 11:24 UTC

1 32990U 79101R   22175.47547965 -.00000125  00000-0  00000+0 0  9993
2 32990   7.0322 215.0620 5060493 224.5900 263.5182  1.81677887 96357

Śledź SATCOM 3 DEB * w czasie rzeczywistym z AllMySat

Download on the App Store